Location: Dana
(41.8364°N, 106.7042°W)
Time: 01:27:51
(UTC+00:00)

Transit 4A - Pass Details

Date: 17 May 2026
Orbit: 860 x 980 km, 66.8° (Epoch: 6 June)

Event Time Altitude Azimuth Distance (km) Brightness Sun altitude
Rises 00:45:19 0° 320° (NW) 3,689 11.9 16.0°
Reaches altitude 10° 00:48:12 10° 311° (NW) 2,737 11.7 15.5°
Maximum altitude 00:53:38 30° 252° (WSW) 1,663 10.4 14.5°
Drops below altitude 10° 00:59:01 10° 194° (SSW) 2,691 10.4 13.5°
Sets 01:01:50 0° 184° (S) 3,618 10.9 13.0°
